[Date Prev][Date Next][Thread Prev][Thread Next] - [Date Index][Thread Index][Author Index]
2 Line ISS Keps 6-30
- Subject: [sarex] 2 Line ISS Keps 6-30
- From: "Dave Larsen PhD" <doc@xxxxxxxxxxx>
- Date: Wed, 30 Jun 2004 06:18:28 -0700
ISS
1 25544U 98067A 04182.47887731 .00014765 00000-0 12757-3 0 1079
2 25544 51.6317 257.9563 0005462 307.3275 234.8729 15.69460254320402
----
Via the sarex mailing list at AMSAT.ORG courtesy of AMSAT-NA.
To unsubscribe, send "unsubscribe sarex" to Majordomo@amsat.org
AMSAT Home